Volver al catálogo

STARLINK-36364

ActivoComunicacionesSSO
NORAD 67978·PAYLOAD·🇺🇸 United States

Lanzado Feb 25, 2026 desde Vandenberg Space Force Base

Loading…

Próximos Pases (próximas 24 horas)

TLE

ActualizadoSource: CelesTrak SupGP

Época: Sep 14, 2026, 21:15 UTC

1 67978C 26038T   26257.88590278  .00056633  00000+0  17584-2 0  2571
2 67978  97.2843 266.3615 0001550  91.5721  14.6155 15.33402942    13

Sigue STARLINK-36364 en tiempo real con AllMySat

Download on the App Store